Location: Luxembourg
(49.6117°N, 6.1300°E)
Time: 05:03:48
(UTC+01:00)

BlueWalker 3 - Pass Details

Date: 12 October 2024
Orbit: 470 x 482 km, 53.2° (Epoch: 04 November)

Event Time Altitude Azimuth Distance (km) Brightness Sun altitude
Exits shadow 06:59:32 12° 287° (WNW) 1,495 3.7 -9.4°
Maximum altitude 07:02:43 46° 360° (N) 646 2.5 -8.9°
Drops below altitude 10° 07:06:17 10° 75° (ENE) 1,637 6.0 -8.3°
Sets 07:08:30 0° 81° (E) 2,516 7.6 -7.9°
